Time,TemperatureF,DewpointF,PressureIn,WindDirection,WindDirectionDegrees,WindSpeedMPH,WindSpeedGustMPH,Humidity,HourlyPrecipIn,Conditions,Clouds,dailyrainin,SoftwareType,DateUTC
2013-04-10 00:03:00,65.0,53.0,30.07,SSE,150,0.0,0.0,64,0.00,,,0.00,,2013-04-10 04:03:00,
2013-04-10 00:13:00,65.0,53.0,30.07,SSE,150,0.0,0.0,64,0.00,,,0.00,,2013-04-10 04:13:00,
2013-04-10 00:20:00,64.0,52.0,30.07,SSE,150,0.0,0.0,66,0.00,,,0.00,,2013-04-10 04:20:00,
2013-04-10 00:23:00,64.0,52.0,30.07,SSE,150,0.0,0.0,65,0.00,,,0.00,,2013-04-10 04:23:00,
2013-04-10 00:33:00,65.0,53.0,30.06,SSE,150,0.0,0.0,64,0.00,,,0.00,,2013-04-10 04:33:00,
2013-04-10 00:43:00,65.0,53.0,30.06,SSE,150,0.0,0.0,64,0.00,,,0.00,,2013-04-10 04:43:00,
2013-04-10 00:52:00,64.0,52.0,30.07,SSE,150,0.0,0.0,66,0.00,,,0.00,,2013-04-10 04:52:00,
2013-04-10 01:03:00,64.0,52.0,30.07,SSE,150,0.0,0.0,66,0.00,,,0.00,,2013-04-10 05:03:00,
2013-04-10 01:13:00,64.0,52.0,30.07,SSE,150,0.0,0.0,66,0.00,,,0.00,,2013-04-10 05:13:00,
2013-04-10 01:53:00,63.0,52.0,30.06,SSE,150,0.0,0.0,67,0.00,,,0.00,,2013-04-10 05:53:00,
2013-04-10 02:03:00,63.0,52.0,30.07,SSE,150,0.0,0.0,68,0.00,,,0.00,,2013-04-10 06:03:00,
2013-04-10 02:12:00,63.0,52.0,30.06,SSE,150,0.0,0.0,68,0.00,,,0.00,,2013-04-10 06:12:00,
2013-04-10 02:22:00,63.0,52.0,30.06,SSE,150,0.0,0.0,68,0.00,,,0.00,,2013-04-10 06:22:00,
2013-04-10 02:32:00,63.0,52.0,30.06,SSE,150,0.0,0.0,68,0.00,,,0.00,,2013-04-10 06:32:00,
2013-04-10 02:42:00,63.0,52.0,30.06,SSE,150,0.0,0.0,68,0.00,,,0.00,,2013-04-10 06:42:00,
2013-04-10 02:52:00,63.0,52.0,30.06,SSE,150,0.0,0.0,68,0.00,,,0.00,,2013-04-10 06:52:00,
2013-04-10 03:02:00,63.0,52.0,30.05,SSE,150,0.0,0.0,68,0.00,,,0.00,,2013-04-10 07:02:00,
2013-04-10 03:12:00,63.0,52.0,30.05,SSE,150,0.0,0.0,68,0.00,,,0.00,,2013-04-10 07:12:00,
2013-04-10 03:20:00,62.0,52.0,30.03,SSE,150,0.0,0.0,69,0.00,,,0.00,,2013-04-10 07:20:00,
2013-04-10 03:22:00,63.0,52.0,30.04,SSE,150,0.0,0.0,68,0.00,,,0.00,,2013-04-10 07:22:00,
2013-04-10 03:32:00,63.0,53.0,30.03,SSE,150,0.0,0.0,69,0.00,,,0.00,,2013-04-10 07:32:00,
2013-04-10 03:42:00,63.0,53.0,30.03,SSE,150,0.0,0.0,69,0.00,,,0.00,,2013-04-10 07:42:00,
2013-04-10 03:52:00,62.0,52.0,30.03,SSE,150,0.0,0.0,69,0.00,,,0.00,,2013-04-10 07:52:00,
2013-04-10 04:02:00,62.0,52.0,30.03,SSE,150,0.0,0.0,69,0.00,,,0.00,,2013-04-10 08:02:00,
2013-04-10 04:12:00,62.0,52.0,30.03,SSE,150,0.0,0.0,69,0.00,,,0.00,,2013-04-10 08:12:00,
2013-04-10 10:22:00,64.0,54.0,30.05,SSE,160,0.0,0.0,71,0.00,,,0.00,,2013-04-10 14:22:00,
2013-04-10 10:33:00,66.0,54.0,30.04,South,190,0.0,1.0,66,0.00,,,0.00,,2013-04-10 14:33:00,
2013-04-10 10:42:00,68.0,56.0,30.05,SSE,148,0.0,1.0,65,0.00,,,0.00,,2013-04-10 14:42:00,
2013-04-10 10:52:00,68.0,56.0,30.05,SSE,148,0.0,1.0,65,0.00,,,0.00,,2013-04-10 14:52:00,
2013-04-10 11:03:00,69.0,55.0,30.05,ESE,123,0.0,3.0,61,0.00,,,0.00,,2013-04-10 15:03:00,
2013-04-10 11:12:00,69.0,55.0,30.05,ESE,123,0.0,3.0,61,0.00,,,0.00,,2013-04-10 15:12:00,
2013-04-10 11:23:00,70.0,55.0,30.05,ESE,123,2.0,4.0,60,0.00,,,0.00,,2013-04-10 15:23:00,
2013-04-10 11:33:00,70.0,55.0,30.05,SSW,198,0.0,3.0,58,0.00,,,0.00,,2013-04-10 15:33:00,
2013-04-10 11:42:00,70.0,55.0,30.05,SSW,198,0.0,3.0,58,0.00,,,0.00,,2013-04-10 15:42:00,
2013-04-10 11:52:00,72.0,55.0,30.05,SSW,207,0.0,5.0,56,0.00,,,0.00,,2013-04-10 15:52:00,
2013-04-10 12:03:00,72.0,54.0,30.05,SW,223,1.0,6.0,54,0.00,,,0.00,,2013-04-10 16:03:00,
2013-04-10 12:13:00,72.0,54.0,30.05,SW,223,1.0,6.0,54,0.00,,,0.00,,2013-04-10 16:13:00,
2013-04-10 12:23:00,72.0,57.0,30.04,North,5,0.0,1.0,59,0.00,,,0.00,,2013-04-10 16:23:00,
2013-04-10 12:33:00,73.0,55.0,30.03,South,180,4.0,8.0,54,0.00,,,0.00,,2013-04-10 16:33:00,
2013-04-10 12:43:00,73.0,55.0,30.03,South,180,4.0,8.0,54,0.00,,,0.00,,2013-04-10 16:43:00,
2013-04-10 12:52:00,75.0,56.0,30.03,SSW,206,0.0,3.0,51,0.00,,,0.00,,2013-04-10 16:52:00,
2013-04-10 13:03:00,76.0,55.0,30.02,SSE,158,4.0,6.0,48,0.00,,,0.00,,2013-04-10 17:03:00,
2013-04-10 13:12:00,76.0,56.0,30.02,South,169,3.0,8.0,50,0.00,,,0.00,,2013-04-10 17:12:00,
2013-04-10 13:22:00,76.0,56.0,30.02,South,169,3.0,8.0,50,0.00,,,0.00,,2013-04-10 17:22:00,
2013-04-10 13:33:00,78.0,56.0,30.01,SW,227,3.0,5.0,46,0.00,,,0.00,,2013-04-10 17:33:00,
2013-04-10 13:43:00,78.0,56.0,30.01,SW,227,3.0,5.0,46,0.00,,,0.00,,2013-04-10 17:43:00,
2013-04-10 13:52:00,76.0,55.0,30.01,SE,145,0.0,8.0,49,0.00,,,0.00,,2013-04-10 17:52:00,
2013-04-10 14:03:00,80.0,55.0,30.00,ESE,106,3.0,5.0,43,0.00,,,0.00,,2013-04-10 18:03:00,
2013-04-10 14:12:00,80.0,55.0,30.00,ESE,106,3.0,5.0,43,0.00,,,0.00,,2013-04-10 18:12:00,
2013-04-10 14:23:00,80.0,55.0,30.00,ESE,106,3.0,5.0,43,0.00,,,0.00,,2013-04-10 18:23:00,
2013-04-10 14:33:00,79.0,55.0,29.99,WSW,248,0.0,5.0,43,0.00,,,0.00,,2013-04-10 18:33:00,
2013-04-10 14:42:00,79.0,55.0,29.99,WSW,248,0.0,5.0,43,0.00,,,0.00,,2013-04-10 18:42:00,
2013-04-10 14:53:00,79.0,55.0,29.98,ESE,113,0.0,6.0,44,0.00,,,0.00,,2013-04-10 18:53:00,
2013-04-10 15:03:00,79.0,55.0,29.98,ESE,113,0.0,6.0,44,0.00,,,0.00,,2013-04-10 19:03:00,
2013-04-10 15:13:00,79.0,55.0,29.98,ESE,113,0.0,6.0,44,0.00,,,0.00,,2013-04-10 19:13:00,
2013-04-10 15:22:00,79.0,55.0,29.98,ESE,113,0.0,6.0,44,0.00,,,0.00,,2013-04-10 19:22:00,
2013-04-10 16:03:00,81.0,55.0,29.95,South,173,1.0,8.0,41,0.00,,,0.00,,2013-04-10 20:03:00,
2013-04-10 16:12:00,81.0,55.0,29.95,South,173,1.0,8.0,41,0.00,,,0.00,,2013-04-10 20:12:00,
2013-04-10 16:23:00,81.0,55.0,29.95,South,173,1.0,8.0,41,0.00,,,0.00,,2013-04-10 20:23:00,
2013-04-10 16:33:00,81.0,54.0,29.93,South,174,0.0,8.0,39,0.00,,,0.00,,2013-04-10 20:33:00,
2013-04-10 16:42:00,82.0,54.0,29.93,SSW,194,5.0,7.0,38,0.00,,,0.00,,2013-04-10 20:42:00,
2013-04-10 16:53:00,82.0,54.0,29.93,SSW,194,5.0,7.0,38,0.00,,,0.00,,2013-04-10 20:53:00,
2013-04-10 17:03:00,82.0,54.0,29.93,SSW,194,5.0,7.0,38,0.00,,,0.00,,2013-04-10 21:03:00,
2013-04-10 17:13:00,82.0,54.0,29.93,SSW,194,5.0,7.0,38,0.00,,,0.00,,2013-04-10 21:13:00,
2013-04-10 17:22:00,80.0,53.0,29.92,SSE,166,3.0,10.0,39,0.00,,,0.00,,2013-04-10 21:22:00,
2013-04-10 17:33:00,80.0,53.0,29.91,SE,138,8.0,10.0,39,0.00,,,0.00,,2013-04-10 21:33:00,
2013-04-10 17:43:00,80.0,53.0,29.91,SE,138,8.0,10.0,39,0.00,,,0.00,,2013-04-10 21:43:00,
2013-04-10 17:53:00,80.0,54.0,29.91,SE,140,2.0,10.0,41,0.00,,,0.00,,2013-04-10 21:53:00,
2013-04-10 18:03:00,80.0,54.0,29.91,SE,140,2.0,10.0,41,0.00,,,0.00,,2013-04-10 22:03:00,
2013-04-10 18:13:00,78.0,53.0,29.91,SE,144,4.0,9.0,42,0.00,,,0.00,,2013-04-10 22:13:00,
2013-04-10 18:23:00,78.0,53.0,29.91,SE,144,4.0,9.0,42,0.00,,,0.00,,2013-04-10 22:23:00,
2013-04-10 18:34:00,77.0,53.0,29.91,SE,140,0.0,3.0,43,0.00,,,0.00,,2013-04-10 22:34:00,
2013-04-10 18:42:00,77.0,53.0,29.91,SE,140,0.0,3.0,43,0.00,,,0.00,,2013-04-10 22:42:00,
2013-04-10 18:52:00,77.0,52.0,29.91,ESE,108,0.0,8.0,42,0.00,,,0.00,,2013-04-10 22:52:00,
2013-04-10 19:03:00,76.0,52.0,29.91,SE,128,2.0,4.0,44,0.00,,,0.00,,2013-04-10 23:03:00,
2013-04-10 19:12:00,76.0,52.0,29.91,SE,128,2.0,4.0,44,0.00,,,0.00,,2013-04-10 23:12:00,
2013-04-10 19:22:00,76.0,52.0,29.91,SE,128,2.0,4.0,44,0.00,,,0.00,,2013-04-10 23:22:00,
2013-04-10 19:33:00,76.0,52.0,29.91,SE,128,2.0,4.0,44,0.00,,,0.00,,2013-04-10 23:33:00,
2013-04-10 19:42:00,76.0,52.0,29.91,SE,128,2.0,4.0,44,0.00,,,0.00,,2013-04-10 23:42:00,
2013-04-10 20:02:00,74.0,54.0,29.90,SE,126,1.0,1.0,49,0.00,,,0.00,,2013-04-11 00:02:00,
2013-04-10 20:13:00,74.0,54.0,29.90,SE,126,1.0,1.0,49,0.00,,,0.00,,2013-04-11 00:13:00,
2013-04-10 20:23:00,74.0,54.0,29.90,SE,126,1.0,1.0,49,0.00,,,0.00,,2013-04-11 00:23:00,
2013-04-10 20:32:00,74.0,54.0,29.90,SE,126,1.0,1.0,49,0.00,,,0.00,,2013-04-11 00:32:00,
2013-04-10 20:42:00,74.0,54.0,29.90,SE,126,1.0,1.0,49,0.00,,,0.00,,2013-04-11 00:42:00,
2013-04-10 21:02:00,72.0,53.0,29.89,SE,126,1.0,1.0,52,0.00,,,0.00,,2013-04-11 01:02:00,
2013-04-10 21:12:00,72.0,53.0,29.89,SE,126,1.0,1.0,52,0.00,,,0.00,,2013-04-11 01:12:00,
2013-04-10 21:22:00,72.0,53.0,29.89,SE,126,1.0,1.0,52,0.00,,,0.00,,2013-04-11 01:22:00,
2013-04-10 21:32:00,71.0,54.0,29.89,SE,126,1.0,1.0,55,0.00,,,0.00,,2013-04-11 01:32:00,
2013-04-10 21:42:00,71.0,54.0,29.89,SE,126,1.0,1.0,55,0.00,,,0.00,,2013-04-11 01:42:00,
2013-04-10 21:52:00,70.0,54.0,29.89,SE,126,1.0,1.0,56,0.00,,,0.00,,2013-04-11 01:52:00,
2013-04-10 22:03:00,70.0,55.0,29.89,SE,126,1.0,1.0,58,0.00,,,0.00,,2013-04-11 02:03:00,
2013-04-10 22:12:00,69.0,54.0,29.89,SE,126,1.0,1.0,59,0.00,,,0.00,,2013-04-11 02:12:00,
2013-04-10 22:22:00,69.0,54.0,29.89,SE,126,1.0,1.0,59,0.00,,,0.00,,2013-04-11 02:22:00,
2013-04-10 22:32:00,69.0,55.0,29.89,SE,126,1.0,1.0,60,0.00,,,0.00,,2013-04-11 02:32:00,
2013-04-10 22:42:00,69.0,55.0,29.89,SE,126,1.0,1.0,60,0.00,,,0.00,,2013-04-11 02:42:00,
2013-04-10 22:52:00,68.0,54.0,29.88,SE,126,1.0,1.0,60,0.00,,,0.00,,2013-04-11 02:52:00,
2013-04-10 23:02:00,67.0,54.0,29.88,SE,126,1.0,1.0,63,0.00,,,0.00,,2013-04-11 03:02:00,
2013-04-10 23:12:00,67.0,54.0,29.88,SE,126,1.0,1.0,63,0.00,,,0.00,,2013-04-11 03:12:00,
2013-04-10 23:22:00,67.0,54.0,29.88,SE,126,1.0,1.0,63,0.00,,,0.00,,2013-04-11 03:22:00,
2013-04-10 23:33:00,68.0,54.0,29.89,SE,126,1.0,1.0,62,0.00,,,0.00,,2013-04-11 03:33:00,
2013-04-10 23:43:00,68.0,55.0,29.89,SE,126,1.0,1.0,63,0.00,,,0.00,,2013-04-11 03:43:00,
2013-04-10 23:53:00,68.0,55.0,29.89,SE,126,1.0,1.0,63,0.00,,,0.00,,2013-04-11 03:53:00,